User: anonymous   Login
Location: Unspecified
(0.0000°N, 0.0000°E)
Time: 04:59:17
(UTC+00:00)
Language:

Intelsat V F4 - Orbit

View from above orbital plane
View from above orbital plane
View from above satellite
View from above satellite

Ground track
Ground track

The orbit data is extracted from the following two-line orbital elements,

1 13083U 82017A   18292.29594178 +.00000046 +00000-0 +00000-0 0  9990
2 13083 014.7829 350.2972 0023389 192.0445 194.0644 00.99223933113997
Epoch (UTC): 19 October 2018 07:06:09
Eccentricity: 0.0023389
inclination: 14.7829°
perigee height: 35983 km
apogee height: 36182 km
right ascension of ascending node: 350.2972°
argument of perigee: 192.0445°
revolutions per day: 0.99223933
mean anomaly at epoch: 194.0644°
orbit number at epoch: 11399

The dashed part of the orbit path shows where the satellite is in the earth's shadow,  

DLR